Flag for Canada Weather past 2 weeks in Whitehorse, Yukon, Canada

Now
43 °F

Passing clouds.


Feels Like: 35 °F
Forecast: 42 / 51 °F
Wind: 16 mph from South

Location: Whitehorse

Current Time: Sep 4, 2015 at 6:10:38 AM

Latest Report: Sep 4, 2015 at 5:00 AM


Visibility: 15 mi

Pressure: 30.02 "Hg (27.76 "Hg at 640m altitude)

Humidity: 76%

Dew point: 36 °F

Location of WhitehorseLocation

Historic Weather in Whitehorse — Graph

°F

Whitehorse temperature yesterday

Maximum temperature yesterday: 57 °F (at 5:00 PM)
Minimum temperature yesterday: 34 °F (at 5:00 AM)
Average temperature yesterday: 46 °F

Past Weeks' High & Low Weather Summary

 TemperatureHumidityPressure
High66 °F (Aug 26, 3:00 PM)100% (Aug 20, 7:00 AM)30.27 "Hg (Aug 20, 7:00 AM)
Low34 °F (Aug 31, 1:00 AM)30% (Aug 26, 6:00 PM)29.13 "Hg (Aug 30, 7:00 PM)
Average46 °F77%29.83 "Hg
* Reported Aug 20 5:00 AM — Sep 4 5:00 AM, Whitehorse, Weather by CustomWeather, © 2015

Note: Actual official high and low records may vary slightly from our data, if they occured in-between our weather recording intervals... More about our weather records

Advertising

Whitehorse weather history for previous 24 hours

 ConditionsComfort  
Time TempWeatherWind HumidityBarometerVisibility
5:00 AM
Fri, Sep 4
43 °FPassing clouds.16 mph76%30.02 "Hg15 mi
4:00 AM43 °FPassing clouds.16 mph76%30.03 "Hg15 mi
3:00 AM43 °FPassing clouds.15 mph76%30.04 "Hg15 mi
2:00 AM45 °FPassing clouds.10 mph66%30.05 "Hg15 mi
1:00 AM43 °FPassing clouds.10 mph71%30.06 "Hg15 mi
12:00 AM45 °FPassing clouds.13 mph71%30.06 "Hg15 mi
11:00 PM
Thu, Sep 3
48 °FPassing clouds.12 mph58%30.07 "Hg15 mi
10:00 PM50 °FPassing clouds.13 mph54%30.07 "Hg15 mi
9:00 PM50 °FPassing clouds.10 mph58%30.09 "Hg40 mi
8:00 PM55 °FScattered clouds.13 mph44%30.09 "Hg40 mi
7:00 PM55 °FPartly sunny.15 mph44%30.10 "Hg40 mi
6:00 PM57 °FPartly sunny.16 mph39%30.11 "Hg40 mi
5:00 PM57 °FPartly sunny.14 mph41%30.13 "Hg40 mi
4:00 PM55 °FBroken clouds.14 mph44%30.15 "Hg40 mi
3:00 PM54 °FBroken clouds.16 mph51%30.16 "Hg40 mi
2:00 PM54 °FPartly sunny.14 mph51%30.16 "Hg40 mi
1:00 PM50 °FBroken clouds.7 mph62%30.18 "Hg40 mi
12:00 PM50 °FPartly sunny.12 mph62%30.20 "Hg40 mi
11:00 AM48 °FPartly sunny.8 mph66%30.22 "Hg40 mi
10:00 AM43 °FPartly sunny.8 mph81%30.23 "Hg40 mi
9:00 AM39 °FBroken clouds.No wind87%30.23 "Hg40 mi
8:00 AM37 °FPartly sunny.3 mph93%30.24 "Hg40 mi
7:00 AM36 °FPassing clouds.3 mph93%30.24 "Hg40 mi
6:00 AM34 °FPassing clouds.3 mph93%30.24 "Hg15 mi
Weather by CustomWeather, © 2015

See weather overviewHow to use our weather pages